Tracking 19192 objects as of 21-Jun-2018
HD Live streaming from Space Station
objects crossing your sky now

FENGYUN 1C DEB

Track FENGYUN 1C DEB now!
10-day predictions


NORAD ID: 31673
Int'l Code: 1999-025CCF
Perigee: 711.0 km
Apogee: 900.5 km
Inclination: 99.3 °
Period: 100.8 minutes
Semi major axis: 7176 km
RCS: 0.0088 m2 (small)
Launch date: May 10, 1999
Source: People's Republic of China (PRC)
Launch site: Taiyaun Space Center, China (TSC)

Note: This is SATELLITE DEBRIS
aabbcc
Your satellite tracking list
Your tracking list is empty




NASA's NSSDC Master Catalog

Two Line Element Set (TLE):
1 31673U 99025CCF 18167.10360734 +.00000028 +00000-0 +29436-4 0  9990
2 31673 099.3381 129.7068 0132060 339.1920 020.3913 14.27940436258066
Source of the keplerian elements: AFSPC